Miscellaneous Local Product
Issued by NWS Hastings, NE

Home | Current Version | Previous Version | Graphics & Text | Print | Product List | Glossary On
Versions: 1 2 3 4 5 6 7 8 9 10 11 12 13 14 15 16 17 18 19 20 21 22 23 24 25 26 27 28 29 30 31 32 33 34 35 36 37 38 39 40 41 42 43 44 45 46 47 48 49 50
000
AXUS43 KGID 021602
MISGRI

GID CWA HOURLY WEATHER ROUNDUP
NATIONAL WEATHER SERVICE HASTINGS NE
1100 AM CDT SUN AUG 02 2015

NOTE: "FAIR" INDICATES FEW OR NO CLOUDS BELOW 12,000 FEET WITH NO
SIGNIFICANT WEATHER AND/OR OBSTRUCTIONS TO VISIBILITY.

...SOUTH CENTRAL NEBRASKA...

CITY           SKY/WX    TMP DP  RH WIND       PRES   REMARKS
GRAND ISLAND   SUNNY     86  71  60 W14       29.90S HX  91
HASTINGS       SUNNY     83  71  67 SW8       29.92S
KEARNEY        SUNNY     84  70  61 W13       29.92F
ORD            SUNNY     85  69  58 W9        29.88S
YORK           SUNNY     82  75  78 W9        29.88S
AURORA         SUNNY     83  74  73 W12       29.89S HX  90
LEXINGTON      SUNNY     86  71  60 SW6       29.94F HX  91
HOLDREGE       SUNNY     82  68  62 W6        29.94S
HEBRON         SUNNY     83  70  64 SW7       29.90S

...NEBRASKA PANHANDLE...

CITY           SKY/WX    TMP DP  RH WIND       PRES   REMARKS
CHADRON        SUNNY     83  57  41 N6        29.98S
ALLIANCE       SUNNY     82  59  45 W5        30.01S
SCOTTSBLUFF    SUNNY     80  58  46 NW5       30.02S
SIDNEY         SUNNY     83  60  45 CALM      30.04S

...WESTERN AND NORTH CENTRAL NEBRASKA...

CITY           SKY/WX    TMP DP  RH WIND       PRES   REMARKS
VALENTINE      NOT AVBL
AINSWORTH      SUNNY     83  59  44 NW8       29.91S
ONEILL         SUNNY     84  64  49 NW13      29.88R
BROKEN BOW     SUNNY     86  66  51 SW7       29.93S
IMPERIAL       MOSUNNY   84  66  54 SE5       29.98F
NORTH PLATTE   SUNNY     83  65  54 S3        29.94F
MCCOOK         SUNNY     86  69  56 CALM      29.94F HX  90

...EASTERN NEBRASKA...

CITY           SKY/WX    TMP DP  RH WIND       PRES   REMARKS
NORFOLK        SUNNY     84  67  56 W7        29.84F
TEKAMAH        SUNNY     84  72  67 SW12      29.82S
COLUMBUS       SUNNY     84  68  58 SW6       29.85F
ALBION         SUNNY     82  67  59 SW7       29.87S
OMAHA EPPLEY   MOSUNNY   88  72  58 SW8       29.84F HX  94
MILLARD        SUNNY     85  73  67 SW9       29.84F HX  92
LINCOLN        SUNNY     87  72  60 SW13      29.87F HX  93
NEBRASKA CITY  SUNNY     82  74  75 SW13      29.87F
BEATRICE       SUNNY     84  73  68 SW9       29.89F HX  91
FALLS CITY     MOSUNNY   84  74  71 SW14      29.89F HX  91

...NORTHERN KANSAS...

CITY           SKY/WX    TMP DP  RH WIND       PRES   REMARKS
GOODLAND       SUNNY     86  61  42 SE9       30.01S
HILL CITY      SUNNY     87  72  60 SW6       29.94S HX  93
NORTON         SUNNY     88  68  51 S7        29.93S HX  91
PHILLIPSBURG   SUNNY     88  72  58 S6        29.92S HX  94
SMITH CENTER   SUNNY     84  70  61 SW5       29.92S
HAYS           SUNNY     86  66  51 S7        29.95S
RUSSELL        SUNNY     86  70  58 SW8       29.93F HX  90
CONCORDIA      SUNNY     86  71  60 SW10      29.91F HX  91
SALINA         SUNNY     89  69  51 S12       29.92F HX  93
TOPEKA         SUNNY     86  68  54 SW15      29.91F



USA.gov is the U.S. government's official web portal to all federal, state and local government web resources and services.